East Lindsay
DateTemperatureDew Point
09/03 - 07:15 PM74.6°63.2°
09/03 - 07:00 PM77.0°62.7°
09/03 - 06:45 PM79.5°63.0°
09/03 - 06:30 PM81.8°62.5°
09/03 - 06:15 PM83.4°59.8°
09/03 - 06:00 PM85.3°57.8°
09/03 - 05:45 PM87.6°57.8°
09/03 - 05:30 PM88.4°58.2°
09/03 - 05:15 PM89.5°58.2°
09/03 - 05:00 PM89.5°57.2°
09/03 - 04:45 PM89.7°57.9°
09/03 - 04:30 PM88.5°57.2°
09/03 - 04:15 PM87.4°57.9°
09/03 - 04:00 PM87.4°57.8°
09/03 - 03:45 PM88.7°57.8°
09/03 - 03:30 PM89.8°58.3°
09/03 - 03:15 PM89.5°59.0°
09/03 - 03:00 PM89.7°58.8°
09/03 - 02:45 PM88.9°58.4°
09/03 - 02:30 PM88.9°59.3°
09/03 - 02:15 PM87.8°59.3°
09/03 - 02:00 PM86.6°58.5°
09/03 - 01:45 PM85.4°58.7°
09/03 - 01:30 PM85.1°59.1°
09/03 - 01:15 PM84.6°59.1°
09/03 - 01:00 PM83.0°58.9°
09/03 - 12:45 PM82.0°59.5°
09/03 - 12:30 PM81.9°59.6°
09/03 - 12:15 PM80.5°59.6°
09/03 - 12:00 PM80.2°59.6°
09/03 - 11:45 AM79.4°59.2°
09/03 - 11:30 AM78.6°59.4°
09/03 - 11:15 AM76.5°59.0°
09/03 - 11:00 AM76.1°58.9°
09/03 - 10:45 AM75.2°59.1°
09/03 - 10:30 AM74.0°59.0°
09/03 - 10:15 AM73.5°58.9°
09/03 - 10:00 AM73.0°59.3°
09/03 - 09:45 AM72.3°59.3°
09/03 - 09:30 AM71.1°59.1°
09/03 - 09:15 AM70.5°59.0°
09/03 - 09:00 AM69.7°58.8°
09/03 - 08:45 AM68.9°58.6°
09/03 - 08:30 AM67.9°58.3°
09/03 - 08:15 AM66.5°58.3°
09/03 - 08:00 AM65.0°58.3°
09/03 - 07:45 AM62.3°58.8°
09/03 - 07:30 AM59.6°59.1°
09/03 - 07:15 AM57.7°57.7°
09/03 - 07:00 AM56.3°56.3°
09/03 - 06:45 AM54.5°54.5°
09/03 - 06:30 AM53.6°53.6°
09/03 - 06:15 AM53.1°53.1°
09/03 - 06:00 AM52.9°52.9°
09/03 - 05:45 AM53.1°53.1°
09/03 - 05:30 AM53.2°53.2°
09/03 - 05:15 AM53.3°53.2°
09/03 - 05:00 AM53.6°53.5°
09/03 - 04:45 AM53.9°53.8°
09/03 - 04:30 AM54.2°54.0°
09/03 - 04:15 AM54.5°54.3°
09/03 - 04:00 AM54.9°54.6°
09/03 - 03:45 AM55.2°54.8°
09/03 - 03:30 AM55.4°55.1°
09/03 - 03:15 AM55.7°55.3°
09/03 - 03:00 AM55.8°55.4°
09/03 - 02:45 AM55.5°54.9°
09/03 - 02:30 AM55.6°54.8°
09/03 - 02:15 AM56.0°55.0°
09/03 - 02:00 AM56.4°55.2°
09/03 - 01:45 AM56.9°55.6°
09/03 - 01:30 AM57.1°55.6°
09/03 - 01:15 AM57.3°55.5°
09/03 - 01:00 AM57.5°55.4°
09/03 - 12:45 AM58.0°56.0°
09/03 - 12:30 AM58.6°56.8°
09/03 - 12:15 AM58.6°56.9°
09/03 - 12:00 AM58.7°56.8°
09/02 - 11:45 PM58.9°56.6°
09/02 - 11:30 PM59.2°56.7°
09/02 - 11:15 PM59.6°56.8°
09/02 - 11:00 PM59.9°57.0°
09/02 - 10:45 PM60.0°57.0°
09/02 - 10:30 PM60.2°57.3°
09/02 - 10:15 PM60.5°57.6°
09/02 - 10:00 PM61.0°58.2°
09/02 - 09:45 PM61.4°58.4°
09/02 - 09:30 PM61.9°58.5°
09/02 - 09:15 PM62.3°58.4°
09/02 - 09:00 PM63.1°58.8°
09/02 - 08:45 PM63.7°58.6°
09/02 - 08:30 PM64.2°58.6°
09/02 - 08:15 PM65.4°60.3°
09/02 - 08:00 PM66.3°60.6°
09/02 - 07:45 PM67.8°60.7°
09/02 - 07:30 PM69.5°60.5°
09/02 - 07:15 PM71.7°59.5°
09/02 - 07:00 PM74.2°58.1°
09/02 - 06:45 PM76.9°58.0°
09/02 - 06:30 PM80.1°58.3°
09/02 - 06:15 PM82.2°57.0°
09/02 - 06:00 PM83.6°56.0°
09/02 - 05:45 PM85.2°55.5°
09/02 - 05:30 PM85.7°55.7°
09/02 - 05:15 PM85.4°55.2°
09/02 - 05:00 PM85.6°55.0°
09/02 - 04:45 PM85.7°54.7°
09/02 - 04:30 PM86.9°55.6°
09/02 - 04:15 PM86.8°56.3°
09/02 - 04:00 PM86.1°56.3°
09/02 - 03:45 PM86.4°55.6°
09/02 - 03:30 PM87.1°55.4°
09/02 - 03:15 PM87.7°56.0°
09/02 - 03:00 PM86.9°56.9°
09/02 - 02:45 PM86.1°56.6°
09/02 - 02:30 PM86.6°57.1°
09/02 - 02:15 PM84.7°57.6°
09/02 - 02:00 PM84.0°56.5°
09/02 - 01:45 PM83.8°56.6°
09/02 - 01:30 PM82.8°56.6°
09/02 - 01:15 PM82.5°57.0°
09/02 - 01:00 PM80.8°56.4°
09/02 - 12:45 PM80.0°56.0°
09/02 - 12:30 PM78.5°55.2°
09/02 - 12:15 PM78.3°55.9°
09/02 - 12:00 PM78.1°56.2°
09/02 - 11:45 AM77.3°55.9°
09/02 - 11:30 AM76.2°55.6°
09/02 - 11:15 AM75.6°55.8°
09/02 - 11:00 AM74.5°55.8°
09/02 - 10:45 AM73.5°55.6°
09/02 - 10:30 AM73.1°55.3°
09/02 - 10:15 AM72.4°55.4°
09/02 - 10:00 AM71.5°55.4°
09/02 - 09:45 AM70.0°55.2°
09/02 - 09:30 AM69.0°54.8°
09/02 - 09:15 AM68.5°54.7°
09/02 - 09:00 AM68.3°54.8°
09/02 - 08:45 AM67.5°55.2°
09/02 - 08:30 AM65.4°54.6°
09/02 - 08:15 AM63.9°54.3°
09/02 - 08:00 AM62.3°54.1°
09/02 - 07:45 AM61.6°54.1°
09/02 - 07:30 AM59.2°54.5°
09/02 - 07:15 AM56.5°55.6°
09/02 - 07:00 AM54.2°54.2°
09/02 - 06:45 AM53.0°53.0°
09/02 - 06:30 AM52.4°52.4°
09/02 - 06:15 AM52.1°52.0°
09/02 - 06:00 AM52.1°52.0°
09/02 - 05:45 AM52.4°52.1°
09/02 - 05:30 AM52.7°52.4°
09/02 - 05:15 AM53.0°52.8°
09/02 - 05:00 AM53.2°52.9°
09/02 - 04:45 AM53.2°53.0°
09/02 - 04:30 AM53.1°52.9°
09/02 - 04:15 AM53.3°53.1°
09/02 - 04:00 AM53.3°53.0°
09/02 - 03:45 AM53.3°53.0°
09/02 - 03:30 AM53.2°52.7°
09/02 - 03:15 AM53.3°52.7°
09/02 - 03:00 AM53.4°52.7°
09/02 - 02:45 AM53.4°52.6°
09/02 - 02:30 AM53.6°52.7°
09/02 - 02:15 AM53.8°52.8°
09/02 - 02:00 AM54.0°52.9°
09/02 - 01:45 AM54.3°53.1°
09/02 - 01:30 AM54.8°53.6°
09/02 - 01:15 AM55.4°54.1°
09/02 - 01:00 AM55.7°53.9°
09/02 - 12:45 AM56.1°54.0°
09/02 - 12:30 AM56.2°53.8°
09/02 - 12:15 AM57.0°54.2°
09/02 - 12:00 AM57.9°54.4°
09/01 - 11:45 PM58.9°54.1°
09/01 - 11:30 PM60.0°53.4°
09/01 - 11:15 PM61.4°53.2°
09/01 - 11:00 PM62.3°52.9°
09/01 - 10:45 PM61.6°53.5°
09/01 - 10:30 PM60.1°55.2°
09/01 - 10:15 PM59.4°56.5°
09/01 - 10:00 PM59.9°56.6°
09/01 - 09:45 PM60.4°56.6°
09/01 - 09:30 PM61.1°56.8°
09/01 - 09:15 PM61.8°56.4°
09/01 - 09:00 PM62.5°56.4°
09/01 - 08:45 PM63.6°56.5°
09/01 - 08:30 PM64.9°55.9°
09/01 - 08:15 PM65.8°54.4°